Regional Weather Roundup
Issued by NWS Albany, NY

Home | Current Version | Previous Version | Text Only | Print | Product List | Glossary Off
Versions: 1 2 3 4 5 6 7 8 9 10 11 12 13 14 15 16 17 18 19 20 21 22 23 24 25 26 27 28 29 30 31 32 33 34 35 36 37 38 39 40 41 42 43 44 45 46 47 48 49 50

000
ASUS41 KALY 010110
RWRALY

NEW YORK STATE HOURLY WEATHER ROUNDUP
NATIONAL WEATHER SERVICE ALBANY NY
900 PM EDT SAT APR 30 2016

NOTE: "FAIR" INDICATES FEW OR NO CLOUDS BELOW 12,000 FEET WITH NO
SIGNIFICANT WEATHER AND/OR NO OBSTRUCTIONS TO VISIBILITY.

NYZ032-033-038>043-046>054-057>066-NYZ062>081-082-084-010200-
EAST


CITY           SKY/WX    TMP DP  RH WIND       PRES   REMARKS
ALBANY         MOCLDY    57  37  47 S5        30.17S
GLENS FALLS    PTCLDY    54  25  32 CALM      30.17R
POUGHKEEPSIE   PTCLDY    59  36  42 S6        30.19R
NEWBURGH       MOCLDY    57  39  51 SW7       30.21R
MONTGOMERY     CLOUDY    55  42  61 S7        30.19S
WHITE PLAINS   CLEAR     49  38  65 S7        30.24R
ISLIP          PTCLDY    48  37  65 S7        30.26S
NEW YORK CITY  PTCLDY    52  38  58 S9        30.24S
CENTRAL PARK   CLEAR     52  35  52 VRB3      30.27R
$$

NYZ005>009-017-018-044>046-055-056-010200-
CENTRAL


CITY           SKY/WX    TMP DP  RH WIND       PRES   REMARKS
FULTON         CLOUDY    56  28  34 CALM      30.15F
SYRACUSE       CLOUDY    56  28  34 NW3       30.15S
ROME           CLEAR     57  41  55 S5        30.16S
ELMIRA         CLOUDY    53  40  61 SE5       30.16F
BINGHAMTON     CLOUDY    49  39  68 S3        30.17F
MONTICELLO     CLOUDY    52  41  66 S3        30.21S
$$

NYZ026>034-041>043-087-010200-
NORTH


CITY           SKY/WX    TMP DP  RH WIND       PRES   REMARKS
WATERTOWN      CLEAR     49  26  41 E5        30.16R
FORT DRUM      NOT AVBL
MASSENA        CLOUDY    50  20  30 NE6       30.21S
SARANAC LAKE   CLOUDY    43  21  41 NE8       30.17R
PLATTSBURGH    CLEAR     45  23  42 CALM      30.21S
$$

NYZ001>004-010>016-019>021-085-010200-
WEST


CITY           SKY/WX    TMP DP  RH WIND       PRES   REMARKS
NIAGARA FALLS  CLOUDY    55  30  38 E12       30.09F
BUFFALO        CLOUDY    56  40  55 SE10      30.10S
DUNKIRK        CLOUDY    55  42  61 SE8       30.09S
JAMESTOWN      CLOUDY    48  41  76 SE5       30.09R
WELLSVILLE     CLOUDY    48  40  73 SE6       30.14S
ROCHESTER      MOCLDY    54  29  38 E10       30.14S
PENN YAN       CLOUDY    52  41  66 S8        30.16S
$$

             KEY
       WCI = WIND CHILL INDEX
       VSB = VISIBILITY
       HX  = HEAT INDEX
$$



USA.gov is the U.S. government's official web portal to all federal, state and local government web resources and services.